Tracking 18840 objects as of 19-November-2017
HD Live streaming from Space Station
objects crossing your sky now

SL-24 PLAT

Track SL-24 PLAT now!
10-day predictions


NORAD ID: 40049
Int'l Code: 2014-033AR
Perigee: 602.8 km
Apogee: 621.7 km
Inclination: 97.9 °
Period: 96.8 minutes
Semi major axis: 6983 km
RCS: Unknown
Launch date: June 19, 2014
Source: Commonwealth of Independent States (former USSR) (CIS)
Launch site: Orenburg, Russia (OREN)

Note: This is SATELLITE DEBRIS
aabbcc
Your satellite tracking list
Your tracking list is empty




NASA's NSSDC Master Catalog

Two Line Element Set (TLE):
1 40049U 14033AR  17322.87408680 +.00000353 +00000-0 +44805-4 0  9990
2 40049 097.9130 233.3047 0013517 148.1994 212.0041 14.87714094184898
Source of the keplerian elements: Caltech